SBCT Airport Information

Runway Information
Runway 11 Length 5906 ft width 148 ft
Elevation 0 ft Threshold 0 ft Heading 0
Runway 29 Length 5906 ft Width 148 ft
Elevation 0 ft Threshold 0 ft Heading 0
Runway 15 Length 7267 ft width 148 ft
Elevation 0 ft Threshold 0 ft Heading 0
Runway 33 Length 7267 ft Width 148 ft
Elevation 0 ft Threshold 0 ft Heading 0
Airport Frequencies
Type APP Name CURITIBA A Frequency 119.95 MHZ
Type ATIS Name ATIS Frequency 127.8 MHZ
Type GND Name GND Frequency 121.9 MHZ
Type TWR Name CURITIBA T Frequency 118.55 MHZ
Airport Navaids
Type NDB Name Curitiba Frequency 390 KHZ
Type VOR-DME Name Curitiba Frequency 116500 KHZ
Type NDB Name Pinhais Frequency 255 KHZ
Airport Weather Information & NOTAM
ADDS - METARS form results

(1926 UTC 25 June 2018)
 
METAR text: SBCT 251900Z 33011G21KT 9999 FEW040 25/13 Q1016
Conditions at: SBCT (CURITIBA/AFONSO , BR) observed 1900 UTC 25 June 2018
Temperature: 25.0°C (77°F)
Dewpoint: 13.0°C (55°F) [RH = 47%]
Pressure (altimeter): 30.00 inches Hg (1016.0 mb)
Winds: from the NNW (330 degrees) at 13 MPH (11 knots; 5.7 m/s)
gusting to 24 MPH (21 knots; 10.9 m/s)
Visibility: 6 or more miles (10+ km)
Ceiling: at least 12,000 feet AGL
Clouds: few clouds at 4000 feet AGL
Weather: no significant weather observed at this time